Zurück zum Katalog

S6 MICHAEL FREILICH

AktivWissenschaftLEO
NORAD 46984·PAYLOAD·🇪🇺 EU

Gestartet Nov 21, 2020 von Vandenberg Space Force Base

Loading…

Nächste Überflüge (nächste 24 Stunden)

TLE

AktuellSource: CelesTrak SupGP

Epoche: Sep 14, 2026, 00:00 UTC

1 46984C 20086A   26257.00000000  .00000049  00000+0  21276-3 0  2579
2 46984  66.0420 310.5863 0007908 270.1158  25.4620 12.80929206    14

Verfolge S6 MICHAEL FREILICH in Echtzeit mit AllMySat

Download on the App Store